Location: Centerville
(32.8776°N, 96.6203°W)
Time: 11:28:36
(UTC+00:00)

Cosmos 2237 - Pass Details

Date: 26 October 2021
Orbit: 845 x 856 km, 70.8° (Epoch: 08 December)

Event Time Altitude Azimuth Distance (km) Brightness Sun altitude
Exits shadow 10:44:47 41° 331° (NNW) 1,228 4.8 -24.7°
Maximum altitude 10:46:53 79° 251° (WSW) 872 4.0 -24.2°
Drops below altitude 10° 10:52:34 10° 166° (SSE) 2,471 6.8 -23.1°
Sets 10:55:00 0° 165° (SSE) 3,401 7.6 -22.5°
